Weather reports worldwide

Advertisment
Avignon, France (7563): temperature & dewpoint: 01.08.2020 03:00:00 - 07.08.2020 03:00:00 (CEST)Avignon, France (7563): temperature 5cm: 01.08.2020 03:00:00 - 07.08.2020 03:00:00 (CEST)Avignon, France (7563): wind speed & gusts: 01.08.2020 03:00:00 - 07.08.2020 03:00:00 (CEST)Avignon, France (7563): wind direction: 01.08.2020 03:00:00 - 07.08.2020 03:00:00 (CEST)Avignon, France (7563): reduced air pressure: 01.08.2020 03:00:00 - 07.08.2020 03:00:00 (CEST)Avignon, France (7563): visibility: 01.08.2020 03:00:00 - 07.08.2020 03:00:00 (CEST)Avignon, France (7563): precipitation: 01.08.2020 03:00:00 - 07.08.2020 03:00:00 (CEST)
Date & Time tt [°C] td [°C] tt 5cm [°C] ff [km/h] ff [kn] fx [km/h] fx [kn] dd ppp [hPa] vv [km] rr [mm]
07.08.2020 03:00:00 15,7 12,8 12,4 0 0 6 3 N 1018,5 50 0,0
07.08.2020 02:00:00 16,5 13,0 13,3 4 2 8 4 ENE 1018,5 48 0,0
07.08.2020 01:00:00 17,9 13,4 14,4 5 3 8 4 E 1018,4 50 0,0
07.08.2020 00:00:00 19,0 13,8 15,2 3 2 5 3 NE 1018,1 57 0,0
06.08.2020 23:00:00 21,2 14,6 16,8 3 2 14 8 SSW 1017,4 59 0,0
06.08.2020 22:00:00 22,8 13,8 20,2 8 5 18 10 S 1016,9 60 0,0
06.08.2020 21:00:00 26,4 14,5 25,2 12 7 22 12 SW 1015,9 60 0,0
06.08.2020 20:00:00 29,0 14,8 29,8 16 9 29 16 SW 1015,2 48 0,0
06.08.2020 19:00:00 30,9 14,9 33,3 21 12 33 18 SW 1014,8 48 0,0
06.08.2020 18:00:00 34,3 13,7 39,0 18 10 32 17 WSW 1014,4 52 0,0
06.08.2020 17:00:00 34,6 9,8 42,1 8 4 19 10 W 1014,4 60 0,0
06.08.2020 16:00:00 33,7 9,0 40,7 8 4 24 13 WNW 1014,7 60 0,0
06.08.2020 15:00:00 32,9 10,9 40,5 10 5 21 11 S 1015,1 58 0,0
06.08.2020 14:00:00 31,6 11,4 38,5 9 5 19 11 WNW 1015,4 59 0,0
06.08.2020 13:00:00 30,8 11,7 35,3 7 4 20 11 N 1015,7 60 0,0
06.08.2020 12:00:00 27,9 11,9 31,7 9 5 21 12 NNW 1016,2 20 0,0
06.08.2020 11:00:00 26,2 11,5 26,2 7 4 17 9 NNW 1016,4 60 0,0
06.08.2020 10:00:00 23,2 11,6 21,9 6 3 14 7 N 1016,6 56 0,0
06.08.2020 09:00:00 21,4 11,7 17,9 4 2 8 5 SSW 1016,4 58 0,0
06.08.2020 08:00:00 17,5 11,3 10,8 2 1 5 3 SSE 1016,1 60 0,0
06.08.2020 07:00:00 12,8 9,8 9,5 3 2 5 3 E 1016,0 60 0,0
06.08.2020 06:00:00 13,7 9,9 9,9 0 0 6 3 N 1015,8 60 0,0
06.08.2020 05:00:00 14,5 10,5 10,3 0 0 5 3 N 1015,4 60 0,0
06.08.2020 04:00:00 14,6 10,8 10,6 3 2 6 3 E 1015,4 60 0,0
06.08.2020 03:00:00 14,7 10,3 11,4 0 0 6 3 N 1015,3 60 0,0
06.08.2020 02:00:00 16,6 10,2 13,0 5 3 8 5 E 1015,2 60 0,0
06.08.2020 01:00:00 19,0 11,3 15,4 2 1 13 7 ENE 1015,0 58 0,0
06.08.2020 00:00:00 21,0 11,3 15,4 11 6 18 10 SW 1014,7 60 0,0
05.08.2020 23:00:00 21,0 11,1 16,3 6 3 22 12 SSE 1014,6 49 0,0
05.08.2020 22:00:00 23,9 11,2 22,6 14 8 24 13 WSW 1014,0 60 0,0
05.08.2020 21:00:00 25,2 9,9 23,9 14 8 29 16 SW 1013,3 60 0,0
05.08.2020 20:00:00 30,6 7,7 30,9 10 5 15 8 NNW 1012,3 60 0,0
05.08.2020 19:00:00 31,7 7,4 35,5 4 2 22 12 ENE 1011,9 19 0,0
05.08.2020 18:00:00 32,0 7,6 37,0 6 4 21 11 W 1012,0 19 0,0
05.08.2020 17:00:00 31,6 7,3 38,3 11 6 24 13 SW 1012,1 60 0,0
05.08.2020 16:00:00 30,9 8,6 37,9 11 6 22 12 WSW 1012,3 60 0,0
05.08.2020 15:00:00 30,2 8,6 37,5 11 6 26 14 WNW 1012,5 60 0,0
05.08.2020 14:00:00 29,5 8,5 35,8 15 8 30 16 N 1012,8 60 0,0
05.08.2020 13:00:00 28,5 8,7 33,3 14 7 30 16 NW 1013,1 45 0,0
05.08.2020 12:00:00 27,1 9,0 29,8 17 9 34 18 NNW 1013,2 34 0,0
05.08.2020 11:00:00 25,9 9,3 25,8 22 12 43 23 N 1013,2 10 0,0
05.08.2020 10:00:00 23,6 9,2 23,1 27 15 45 24 NNW 1013,2 33 0,0
05.08.2020 09:00:00 22,0 9,5 20,1 20 11 37 20 N 1012,9 37 0,0
05.08.2020 08:00:00 19,9 9,7 18,2 19 11 38 20 N 1012,6 40 0,0
05.08.2020 07:00:00 18,9 8,8 17,8 18 10 45 24 N 1012,2 59 0,0
05.08.2020 06:00:00 19,2 9,1 18,3 26 14 42 23 N 1011,9 60 0,0
05.08.2020 05:00:00 19,8 8,8 18,8 26 14 43 23 N 1011,7 60 0,0
05.08.2020 04:00:00 20,2 8,8 19,0 23 13 45 24 NNW 1011,6 60 0,0
05.08.2020 03:00:00 20,9 8,8 19,9 28 15 42 23 NNW 1011,5 60 0,0
05.08.2020 02:00:00 21,6 9,2 20,6 26 14 52 28 N 1011,6 60 0,0
05.08.2020 01:00:00 22,1 9,3 21,2 33 18 59 32 NNW 1011,5 60 0,0
05.08.2020 00:00:00 22,6 9,4 21,7 35 19 64 35 NNW 1011,3 60 0,0
04.08.2020 23:00:00 23,1 8,8 22,3 37 20 61 33 NNW 1011,3 60 0,0
04.08.2020 22:00:00 23,6 9,2 22,5 40 21 79 43 NNW 1011,0 60 0,0
04.08.2020 21:00:00 24,2 8,6 23,5 36 20 71 39 NNW 1011,1 60 0,0
04.08.2020 20:00:00 25,4 8,4 25,7 40 22 81 44 NNW 1010,8 17 0,0
04.08.2020 19:00:00 26,2 9,1 27,4 48 26 95 51 NNW 1010,3 9 0,0
04.08.2020 18:00:00 26,4 8,8 28,7 50 27 80 43 N 1010,3 10 0,0
04.08.2020 17:00:00 26,7 9,1 29,9 48 26 87 47 NNW 1010,6 9 0,0
04.08.2020 16:00:00 26,8 9,2 29,8 47 25 88 48 N 1010,3 10 0,0
04.08.2020 15:00:00 26,0 9,3 29,7 52 28 91 49 N 1010,7 10 0,0
04.08.2020 14:00:00 25,5 9,3 28,4 47 26 93 50 NNW 1010,5 11 0,0
04.08.2020 13:00:00 24,5 9,2 27,4 53 28 92 50 NNW 1011,1 16 0,0
04.08.2020 12:00:00 23,7 10,0 25,2 49 27 82 44 NNW 1011,4 19 0,0
04.08.2020 11:00:00 22,6 9,0 23,2 41 22 76 41 NNW 1012,3 22 0,0
04.08.2020 10:00:00 21,7 9,9 21,0 36 19 70 38 NNW 1012,3 23 0,0
04.08.2020 09:00:00 20,0 10,1 19,1 35 19 52 28 NNW 1012,5 41 0,0
04.08.2020 08:00:00 18,6 9,9 16,8 25 14 44 24 NW 1012,6 43 0,0
04.08.2020 07:00:00 17,3 9,7 16,3 26 14 46 25 NW 1012,5 57 0,0
04.08.2020 06:00:00 17,3 9,9 15,9 23 13 38 21 NNW 1012,5 60 0,0
04.08.2020 05:00:00 17,1 10,2 15,8 26 14 40 22 NW 1012,2 60 0,0
04.08.2020 04:00:00 17,3 10,4 16,2 18 10 46 25 NNW 1012,7 60 0,0
04.08.2020 03:00:00 18,5 10,6 17,4 31 17 48 26 NNW 1012,6 60 0,0
04.08.2020 02:00:00 18,8 10,6 18,0 30 16 56 31 NNW 1012,8 60 0,0
04.08.2020 01:00:00 19,2 10,2 18,3 28 15 53 29 NNW 1013,0 60 0,0
04.08.2020 00:00:00 19,7 9,6 18,8 28 15 46 25 NNW 1012,7 60 0,0
03.08.2020 23:00:00 19,9 9,7 18,9 21 11 44 24 NNW 1012,4 60 0,0
03.08.2020 22:00:00 20,9 9,5 20,1 29 16 56 31 NNW 1011,6 60 0,0
03.08.2020 21:00:00 22,4 9,2 21,6 29 16 58 31 N 1010,8 60 0,0
03.08.2020 20:00:00 24,6 9,7 25,1 34 18 64 34 N 1009,9 44 0,0
03.08.2020 19:00:00 25,9 10,1 25,6 39 21 66 36 N 1009,2 51 0,0
03.08.2020 18:00:00 26,1 9,4 27,1 37 20 68 37 N 1008,9 37 0,0
03.08.2020 17:00:00 28,3 9,6 31,7 36 19 61 33 N 1008,5 21 0,0
03.08.2020 16:00:00 28,8 10,5 29,6 38 21 61 33 NNW 1008,5 24 0,0
03.08.2020 15:00:00 29,2 10,3 31,0 34 18 59 32 NNW 1009,0 27 0,0
03.08.2020 14:00:00 29,1 10,7 28,5 36 19 63 34 NNW 1009,5 33 0,0
03.08.2020 13:00:00 28,4 10,6 31,3 34 19 58 31 NNW 1009,9 26 0,0
03.08.2020 12:00:00 27,2 12,0 29,3 33 18 58 31 NNW 1010,2 30 0,0
03.08.2020 11:00:00 25,9 13,4 23,8 32 18 52 28 NNW 1010,5 34 0,0
03.08.2020 10:00:00 23,2 13,1 23,4 27 15 42 23 NNW 1010,9 60 0,0
03.08.2020 09:00:00 22,7 13,2 22,2 26 14 48 26 NNW 1011,2 44 0,0
03.08.2020 08:00:00 22,1 13,4 21,4 28 15 49 26 NNW 1010,6 51 0,0
03.08.2020 07:00:00 21,8 13,9 21,2 24 13 45 24 NNW 1010,9 60 0,0
03.08.2020 06:00:00 22,2 14,6 21,5 23 12 41 22 NNW 1010,7 60 0,0
03.08.2020 05:00:00 22,6 14,9 21,8 23 12 41 22 NW 1010,8 60 0,0
03.08.2020 04:00:00 22,8 14,9 22,0 22 12 39 21 NNW 1010,6 60 0,0
03.08.2020 03:00:00 23,4 14,7 22,5 22 12 51 27 NNW 1010,8 60 0,0
03.08.2020 02:00:00 23,7 15,2 22,8 37 20 56 30 NNW 1010,8 60 0,0
03.08.2020 01:00:00 23,9 15,9 23,1 30 16 44 24 NW 1010,9 60 0,0
03.08.2020 00:00:00 24,2 16,5 23,4 27 15 48 26 NW 1011,2 60 0,0
02.08.2020 23:00:00 24,9 15,8 24,1 28 15 49 27 NNW 1010,7 60 0,0
02.08.2020 22:00:00 25,7 16,0 24,9 31 17 53 28 NNW 1010,5 60 0,0
02.08.2020 21:00:00 26,5 15,8 26,1 31 17 62 34 NNW 1010,3 60 0,0
02.08.2020 20:00:00 27,4 16,7 27,3 37 20 56 30 N 1010,1 42 0,0
02.08.2020 19:00:00 28,9 16,1 29,2 32 17 56 30 NNW 1010,0 45 0,0
02.08.2020 18:00:00 31,0 17,7 30,9 31 17 51 27 N 1010,0 28 0,0
02.08.2020 17:00:00 30,1 17,5 31,0 26 14 51 27 N 1010,3 44 0,0
02.08.2020 16:00:00 30,8 17,8 32,8 29 16 60 33 NNW 1010,8 26 0,0
02.08.2020 15:00:00 32,2 18,4 35,8 34 18 61 33 NNW 1011,4 18 0,0
02.08.2020 14:00:00 31,2 18,5 35,3 37 20 57 31 NW 1011,5 22 0,0
02.08.2020 13:00:00 31,2 18,9 33,6 28 15 60 33 NNW 1011,9 20 0,0
02.08.2020 12:00:00 29,4 18,2 31,3 38 20 57 31 NNW 1011,7 31 0,0
02.08.2020 11:00:00 28,8 18,6 29,0 36 19 60 33 NNW 1012,1 39 0,0
02.08.2020 10:00:00 28,0 18,1 26,6 32 17 55 30 NNW 1012,1 51 0,0
02.08.2020 09:00:00 25,7 17,9 23,9 23 13 40 22 NNW 1012,5 60 0,0
02.08.2020 08:00:00 24,3 17,3 22,3 20 11 34 19 NNW 1012,5 54 0,0
02.08.2020 07:00:00 23,2 16,7 21,7 20 11 36 19 NNW 1012,1 53 0,0
02.08.2020 06:00:00 23,1 16,6 21,7 20 11 39 21 NNW 1011,7 54 0,0
02.08.2020 05:00:00 23,1 16,6 21,0 19 11 35 19 NNW 1012,0 55 0,0
02.08.2020 04:00:00 22,4 16,4 20,2 14 8 33 18 NNW 1012,0 51 0,0
02.08.2020 03:00:00 22,4 16,7 18,5 22 12 37 20 NNW 1012,0 54 0,0
02.08.2020 02:00:00 20,5 18,4 18,7 0 0 11 6 N 1012,9 29 0,0
02.08.2020 01:00:00 20,8 18,9 19,5 5 3 9 5 NE 1013,2 20 0,0
02.08.2020 00:00:00 21,9 19,6 20,4 8 5 12 6 NW 1012,8 28 0,0
01.08.2020 23:00:00 22,0 19,5 20,7 5 3 21 12 NNE 1012,5 32 0,0
01.08.2020 22:00:00 23,4 19,3 21,0 14 8 42 23 N 1013,2 43 0,4
01.08.2020 21:00:00 22,5 20,6 20,4 16 8 58 31 SSE 1013,2 20 5,3
01.08.2020 20:00:00 26,5 16,4 23,6 26 14 86 47 NNE 1015,1 53 0,0
01.08.2020 19:00:00 35,3 17,5 35,4 23 13 49 27 WSW 1010,8 46 0,0
01.08.2020 18:00:00 38,5 18,9 41,7 24 13 35 19 SW 1009,7 20 0,0
01.08.2020 17:00:00 40,2 12,9 45,9 13 7 34 18 NNW 1010,1 57 0,0
01.08.2020 16:00:00 39,7 11,8 45,3 10 5 28 15 NNW 1010,9 20 0,0
01.08.2020 15:00:00 39,2 16,2 44,5 10 6 25 13 NNW 1011,6 11 0,0
01.08.2020 14:00:00 37,2 15,6 41,8 13 7 29 16 NNW 1012,3 51 0,0
01.08.2020 13:00:00 35,5 12,5 38,9 12 6 23 12 NNW 1013,2 60 0,0
01.08.2020 12:00:00 32,8 13,9 35,6 10 5 23 12 NW 1014,0 55 0,0
01.08.2020 11:00:00 30,3 15,2 30,8 9 5 16 9 NW 1014,3 58 0,0
01.08.2020 10:00:00 28,5 14,7 27,0 4 2 12 7 WNW 1014,6 38 0,0
01.08.2020 09:00:00 26,0 13,8 23,5 4 2 9 5 N 1014,9 53 0,0
01.08.2020 08:00:00 22,5 15,6 17,5 3 1 5 3 N 1015,0 20 0,0
01.08.2020 07:00:00 18,6 13,9 15,9 3 1 6 3 ENE 1014,8 47 0,0
01.08.2020 06:00:00 18,5 14,2 15,9 4 2 6 3 SSE 1014,5 41 0,0
01.08.2020 05:00:00 19,1 14,4 16,7 3 1 8 4 S 1014,8 41 0,0
01.08.2020 04:00:00 20,0 14,1 16,7 7 4 9 5 E 1014,8 46 0,0
01.08.2020 03:00:00 19,6 14,4 16,7 3 1 7 4 S 1015,0 47 0,0

tt = temperature
td = dewpoint
tt 5cm = temperature 5cm
ff = wind speed
fx = gusts
dd = wind direction
ppp = reduced air pressure
vv = visibility
rr = precipitation

Next stations